{"data":{"norad_id":55425,"epoch":"2026-09-20T22:00:03.000096Z","epoch_age_seconds":60623,"freshness":"FRESH","line1":"1 55425U 23014AL  26263.91670139  .00079399  00000+0  55800-2 0  9992","line2":"2 55425  70.0016 312.2046 0000432 295.9170 144.2305 15.04653834  5673","mean_motion":15.04653834,"eccentricity":4.32e-5,"inclination_deg":70.0016,"raan_deg":312.2046,"arg_perigee_deg":295.917,"mean_anomaly_deg":144.2305,"bstar":0.00558,"rev_number":567,"period_min":95.70307584781,"perigee_km":552.26907372115,"apogee_km":552.86788667464,"semimajor_km":6930.7054801979,"source":"CELESTRAK","updated_at":"2026-09-21T09:00:33.220716Z"}}